TimeCST,TemperatureF,Dew PointF,Humidity,Sea Level PressureIn,VisibilityMPH,Wind Direction,Wind SpeedMPH,Gust SpeedMPH,PrecipitationIn,Events,Conditions,WindDirDegrees,DateUTC
12:53 AM,57.9,43.0,58,30.20,10.0,North,5.8,-,N/A,,Clear,350,2012-12-05 06:53:00
1:53 AM,57.0,39.0,51,30.20,10.0,North,5.8,-,N/A,,Clear,360,2012-12-05 07:53:00
2:53 AM,55.9,36.0,47,30.20,10.0,NNE,5.8,-,N/A,,Clear,20,2012-12-05 08:53:00
3:53 AM,54.0,34.0,47,30.20,10.0,North,4.6,-,N/A,,Clear,350,2012-12-05 09:53:00
4:53 AM,53.1,32.0,45,30.22,10.0,NNW,3.5,-,N/A,,Clear,340,2012-12-05 10:53:00
5:53 AM,52.0,30.0,43,30.22,10.0,North,3.5,-,N/A,,Clear,360,2012-12-05 11:53:00
6:53 AM,51.1,30.0,44,30.23,10.0,NNW,5.8,-,N/A,,Clear,340,2012-12-05 12:53:00
8:53 AM,57.0,30.9,37,30.25,10.0,NNW,5.8,-,N/A,,Clear,340,2012-12-05 14:53:00
9:53 AM,62.1,35.1,37,30.26,10.0,North,6.9,-,N/A,,Clear,350,2012-12-05 15:53:00
10:53 AM,64.0,37.0,37,30.24,10.0,Variable,4.6,-,N/A,,Clear,0,2012-12-05 16:53:00
11:53 AM,68.0,35.1,30,30.20,10.0,NNE,6.9,-,N/A,,Clear,30,2012-12-05 17:53:00
12:53 PM,70.0,36.0,29,30.16,10.0,Variable,3.5,-,N/A,,Clear,0,2012-12-05 18:53:00
1:53 PM,72.0,34.0,25,30.11,10.0,Calm,Calm,-,N/A,,Clear,0,2012-12-05 19:53:00
2:53 PM,73.9,30.0,20,30.08,10.0,Calm,Calm,-,N/A,,Clear,0,2012-12-05 20:53:00
3:53 PM,75.0,23.0,14,30.06,10.0,NNE,4.6,-,N/A,,Clear,20,2012-12-05 21:53:00
4:53 PM,73.0,28.0,19,30.05,10.0,Calm,Calm,-,N/A,,Clear,0,2012-12-05 22:53:00
5:53 PM,64.0,35.1,34,30.06,10.0,Calm,Calm,-,N/A,,Clear,0,2012-12-05 23:53:00
6:53 PM,59.0,37.9,46,30.07,10.0,Calm,Calm,-,N/A,,Clear,0,2012-12-06 00:53:00
7:53 PM,54.0,37.9,55,30.07,10.0,Calm,Calm,-,N/A,,Clear,0,2012-12-06 01:53:00
8:53 PM,51.1,39.9,66,30.08,10.0,Calm,Calm,-,N/A,,Clear,0,2012-12-06 02:53:00
9:53 PM,48.9,39.9,71,30.08,10.0,Calm,Calm,-,N/A,,Clear,0,2012-12-06 03:53:00
10:53 PM,48.9,41.0,74,30.07,10.0,Calm,Calm,-,N/A,,Clear,0,2012-12-06 04:53:00
11:53 PM,46.9,39.9,77,30.05,10.0,Calm,Calm,-,N/A,,Clear,0,2012-12-06 05:53:00